CES5412 ZSPD-ZSAM

Flight info

Callsign CES5412
Flight time N/A
Altitude 25600
Route NXD81D/17L NXD W131 AKDIM A470 ENVEN
Aircraft A321/M-SDE2E3FGILRWXY/LB1D1

Departure

Time N/A
Airport Shanghai Pudong International Airport (ZSPD)

Arrival

Time 2026-05-04 06:03
Airport Xiamen Gaoqi International Airport (ZSAM)
Time Latitude Longitude Altitude Speed Heading
2026-05-04 04:12 31.19593 121.32534 30 ft 0 kts 267°
2026-05-04 04:19 31.19594 121.32539 29 ft 2 kts 267°
2026-05-04 04:20 31.19595 121.32563 29 ft 4 kts 266°
2026-05-04 04:20 31.19597 121.32602 29 ft 6 kts 265°
2026-05-04 04:20 31.19589 121.32647 29 ft 5 kts 314°
2026-05-04 04:20 31.19569 121.32663 29 ft 1 kts 350°
2026-05-04 04:21 31.19571 121.32662 29 ft 1 kts 355°
2026-05-04 04:21 31.19577 121.32662 29 ft 0 kts 358°
2026-05-04 04:23 31.19627 121.32661 29 ft 22 kts 359°
2026-05-04 04:23 31.19717 121.32744 29 ft 20 kts 84°
2026-05-04 04:23 31.19722 121.32850 29 ft 0 kts 87°
2026-05-04 04:25 31.19722 121.32851 29 ft 1 kts 88°
2026-05-04 04:25 31.19723 121.32872 29 ft 5 kts 87°
2026-05-04 04:26 31.19725 121.32926 29 ft 8 kts 87°
2026-05-04 04:26 31.19728 121.32998 29 ft 10 kts 84°
2026-05-04 04:26 31.19771 121.33054 29 ft 11 kts
2026-05-04 04:26 31.19855 121.33052 29 ft 13 kts 358°
2026-05-04 04:27 31.19950 121.33047 29 ft 14 kts 356°
2026-05-04 04:27 31.20053 121.33039 29 ft 15 kts 355°
2026-05-04 04:27 31.20163 121.33031 29 ft 16 kts 356°
2026-05-04 04:27 31.20280 121.33024 29 ft 17 kts 357°
2026-05-04 04:28 31.20403 121.33018 29 ft 18 kts 357°
2026-05-04 04:28 31.20530 121.33012 29 ft 19 kts 358°
2026-05-04 04:28 31.20661 121.33006 29 ft 19 kts 356°
2026-05-04 04:28 31.20795 121.32996 29 ft 20 kts 355°
2026-05-04 04:29 31.20932 121.32987 29 ft 20 kts 355°
2026-05-04 04:29 31.21072 121.32975 29 ft 20 kts 359°
2026-05-04 04:29 31.21200 121.32974 29 ft 18 kts
2026-05-04 04:29 31.21289 121.33013 29 ft 14 kts 66°
2026-05-04 04:30 31.21290 121.33049 29 ft 0 kts 91°
2026-05-04 04:33 31.21290 121.33077 29 ft 11 kts 91°
2026-05-04 04:34 31.21256 121.33155 29 ft 12 kts 154°
2026-05-04 04:34 31.21166 121.33170 29 ft 14 kts 178°
2026-05-04 04:34 31.20906 121.33180 29 ft 79 kts 179°
2026-05-04 04:34 31.20072 121.33242 30 ft 156 kts 178°
2026-05-04 04:35 31.18856 121.33291 292 ft 192 kts 179°
2026-05-04 04:35 31.17445 121.33324 753 ft 214 kts 179°
2026-05-04 04:35 31.15893 121.33409 1201 ft 235 kts 177°
2026-05-04 04:35 31.14239 121.33512 1927 ft 243 kts 178°
2026-05-04 04:36 31.12558 121.33610 2736 ft 246 kts 178°
2026-05-04 04:36 31.10814 121.33702 3340 ft 260 kts 179°
2026-05-04 04:36 31.08958 121.33795 3978 ft 271 kts 179°
2026-05-04 04:36 31.07066 121.33819 4577 ft 275 kts 188°
2026-05-04 04:37 31.03930 121.29278 5017 ft 258 kts 278°
2026-05-04 04:37 31.04280 121.27236 5035 ft 259 kts 284°
2026-05-04 04:38 31.04685 121.25196 5033 ft 259 kts 284°
2026-05-04 04:38 31.05080 121.23137 5040 ft 260 kts 284°
2026-05-04 04:38 31.05472 121.21056 5298 ft 268 kts 284°
2026-05-04 04:38 31.05859 121.18956 6208 ft 266 kts 284°
2026-05-04 04:39 31.06236 121.16883 7131 ft 264 kts 284°
2026-05-04 04:39 31.06615 121.14803 7937 ft 266 kts 284°
2026-05-04 04:39 31.06800 121.12658 8691 ft 272 kts 272°
2026-05-04 04:39 31.06524 121.10468 9414 ft 279 kts 260°
2026-05-04 04:40 31.06003 121.08274 10127 ft 283 kts 258°
2026-05-04 04:40 31.05448 121.06067 10707 ft 291 kts 258°
2026-05-04 04:40 31.04865 121.03749 11027 ft 308 kts 257°
2026-05-04 04:40 31.04252 121.01303 11330 ft 324 kts 257°
2026-05-04 04:41 31.03613 120.98745 11778 ft 334 kts 257°
2026-05-04 04:41 31.02966 120.96158 12455 ft 336 kts 257°
2026-05-04 04:41 31.02317 120.93558 13125 ft 337 kts 257°
2026-05-04 04:41 31.01659 120.90925 13774 ft 339 kts 257°
2026-05-04 04:42 31.01004 120.88293 14419 ft 341 kts 257°
2026-05-04 04:42 31.00343 120.85645 15030 ft 344 kts 256°
2026-05-04 04:42 30.99680 120.82980 15616 ft 346 kts 256°
2026-05-04 04:42 30.99010 120.80291 16161 ft 350 kts 256°
2026-05-04 04:43 30.98332 120.77577 16709 ft 352 kts 256°
2026-05-04 04:43 30.97649 120.74843 17271 ft 354 kts 256°
2026-05-04 04:43 30.96957 120.72075 17801 ft 357 kts 256°
2026-05-04 04:43 30.96264 120.69304 18318 ft 359 kts 256°
2026-05-04 04:44 30.95570 120.66529 18887 ft 359 kts 255°
2026-05-04 04:44 30.94876 120.63761 19435 ft 358 kts 255°
2026-05-04 04:44 30.94183 120.61000 19726 ft 356 kts 255°
2026-05-04 04:44 30.93493 120.58250 19773 ft 354 kts 255°
2026-05-04 04:45 30.92799 120.55490 19791 ft 362 kts 255°
2026-05-04 04:45 30.92080 120.52635 19797 ft 369 kts 255°
2026-05-04 04:45 30.91358 120.49773 19789 ft 370 kts 255°
2026-05-04 04:47 30.80807 120.37010 21529 ft 387 kts 216°
2026-05-04 04:47 30.78496 120.35430 21973 ft 387 kts 216°
2026-05-04 04:47 30.76186 120.33847 22433 ft 386 kts 216°
2026-05-04 04:47 30.73883 120.32258 22859 ft 386 kts 216°
2026-05-04 04:48 30.71578 120.30666 23285 ft 387 kts 216°
2026-05-04 04:49 30.62274 120.24275 24790 ft 392 kts 216°
2026-05-04 04:49 30.59931 120.22671 25160 ft 392 kts 216°
2026-05-04 04:49 30.57584 120.21067 25517 ft 393 kts 216°
2026-05-04 04:49 30.55234 120.19458 25682 ft 393 kts 216°
2026-05-04 04:50 30.52884 120.17854 25686 ft 393 kts 216°
2026-05-04 04:50 30.50534 120.16249 25692 ft 393 kts 216°
2026-05-04 04:50 30.48166 120.14634 25692 ft 393 kts 216°
2026-05-04 04:50 30.45816 120.13032 25694 ft 394 kts 216°
2026-05-04 04:51 30.43458 120.11424 25692 ft 394 kts 216°
2026-05-04 04:51 30.41104 120.09822 25697 ft 394 kts 216°
2026-05-04 04:51 30.38749 120.08220 25697 ft 393 kts 216°
2026-05-04 04:51 30.36392 120.06618 25697 ft 394 kts 216°
2026-05-04 04:52 30.34036 120.05014 25698 ft 394 kts 216°
2026-05-04 04:52 30.31662 120.03402 25699 ft 395 kts 216°
2026-05-04 04:52 30.29296 120.01795 25698 ft 395 kts 216°
2026-05-04 04:52 30.26934 120.00193 25697 ft 395 kts 216°
2026-05-04 04:53 30.24569 119.98588 25694 ft 394 kts 216°
2026-05-04 04:53 30.22207 119.96986 25695 ft 396 kts 216°
2026-05-04 04:53 30.19838 119.95379 25694 ft 396 kts 216°
2026-05-04 04:53 30.17474 119.93778 25693 ft 395 kts 216°
2026-05-04 04:54 30.15090 119.92165 25694 ft 396 kts 216°
2026-05-04 04:54 30.12718 119.90557 25695 ft 396 kts 216°
2026-05-04 04:54 30.10340 119.88950 25698 ft 397 kts 216°
2026-05-04 04:54 30.07962 119.87342 25700 ft 397 kts 216°
2026-05-04 04:55 30.05586 119.85735 25699 ft 396 kts 216°
2026-05-04 04:55 30.03209 119.84132 25698 ft 397 kts 216°
2026-05-04 04:55 30.00833 119.82528 25699 ft 398 kts 216°
2026-05-04 04:55 29.98433 119.80910 25695 ft 397 kts 216°
2026-05-04 04:56 29.96052 119.79306 25696 ft 397 kts 216°
2026-05-04 04:56 29.93675 119.77704 25701 ft 397 kts 216°
2026-05-04 04:56 29.91300 119.76103 25714 ft 396 kts 216°
2026-05-04 04:56 29.88924 119.74502 25722 ft 397 kts 216°
2026-05-04 04:57 29.86543 119.72909 25724 ft 397 kts 216°
2026-05-04 04:57 29.84159 119.71313 25724 ft 397 kts 216°
2026-05-04 04:57 29.81762 119.69707 25729 ft 397 kts 216°
2026-05-04 04:57 29.79347 119.68168 25719 ft 400 kts 212°
2026-05-04 04:58 29.76753 119.66974 25735 ft 406 kts 205°
2026-05-04 04:58 29.73997 119.66170 25730 ft 413 kts 198°
2026-05-04 04:58 29.71123 119.65779 25729 ft 419 kts 192°
2026-05-04 04:58 29.68212 119.65573 25731 ft 420 kts 191°
2026-05-04 04:59 29.65296 119.65397 25730 ft 420 kts 191°
2026-05-04 04:59 29.62365 119.65225 25731 ft 419 kts 191°
2026-05-04 04:59 29.59459 119.65055 25735 ft 419 kts 191°
2026-05-04 04:59 29.56555 119.64883 25729 ft 418 kts 191°
2026-05-04 05:00 29.53650 119.64711 25729 ft 418 kts 191°
2026-05-04 05:00 29.50753 119.64539 25724 ft 418 kts 191°
2026-05-04 05:00 29.44944 119.64192 25725 ft 418 kts 191°
2026-05-04 05:01 29.42023 119.64015 25727 ft 418 kts 191°
2026-05-04 05:01 29.39123 119.63842 25718 ft 418 kts 191°
2026-05-04 05:01 29.36220 119.63668 25721 ft 417 kts 191°
2026-05-04 05:01 29.33331 119.63497 25718 ft 416 kts 191°
2026-05-04 05:02 29.30439 119.63324 25716 ft 418 kts 191°
2026-05-04 05:02 29.27538 119.63150 25710 ft 418 kts 191°
2026-05-04 05:02 29.24640 119.62977 25712 ft 418 kts 191°
2026-05-04 05:02 29.21723 119.62804 25709 ft 417 kts 191°
2026-05-04 05:03 29.18821 119.62631 25708 ft 417 kts 191°
2026-05-04 05:03 29.15930 119.62460 25703 ft 417 kts 191°
2026-05-04 05:04 29.07258 119.61945 25697 ft 416 kts 191°
2026-05-04 05:04 29.04373 119.61772 25700 ft 416 kts 191°
2026-05-04 05:04 29.01462 119.61598 25698 ft 416 kts 191°
2026-05-04 05:06 28.81265 119.60406 25735 ft 416 kts 191°
2026-05-04 05:06 28.78378 119.60236 25728 ft 416 kts 191°
2026-05-04 05:06 28.75489 119.60066 25734 ft 417 kts 191°
2026-05-04 05:07 28.72592 119.59893 25737 ft 417 kts 191°
2026-05-04 05:07 28.69701 119.59723 25744 ft 417 kts 191°
2026-05-04 05:07 28.66802 119.59551 25742 ft 417 kts 191°
2026-05-04 05:09 28.43638 119.58186 25737 ft 418 kts 191°
2026-05-04 05:09 28.40718 119.58014 25732 ft 418 kts 191°
2026-05-04 05:10 28.37824 119.57843 25726 ft 418 kts 191°
2026-05-04 05:10 28.34919 119.57673 25735 ft 418 kts 191°
2026-05-04 05:10 28.32016 119.57500 25733 ft 418 kts 191°
2026-05-04 05:10 28.29116 119.57328 25742 ft 417 kts 191°
2026-05-04 05:11 28.26221 119.57157 25744 ft 418 kts 191°
2026-05-04 05:11 28.23324 119.56983 25740 ft 417 kts 191°
2026-05-04 05:11 28.20410 119.56808 25744 ft 417 kts 191°
2026-05-04 05:11 28.17515 119.56637 25751 ft 418 kts 191°
2026-05-04 05:12 28.14611 119.56466 25747 ft 419 kts 191°
2026-05-04 05:12 28.11705 119.56297 25749 ft 418 kts 191°
2026-05-04 05:12 28.08799 119.56208 25754 ft 420 kts 189°
2026-05-04 05:12 28.05883 119.56196 25751 ft 420 kts 189°
2026-05-04 05:13 28.02960 119.56179 25754 ft 421 kts 189°
2026-05-04 05:13 28.00017 119.56161 25754 ft 421 kts 189°
2026-05-04 05:13 27.97091 119.56141 25755 ft 421 kts 188°
2026-05-04 05:13 27.94165 119.56121 25757 ft 421 kts 189°
2026-05-04 05:14 27.91241 119.56101 25753 ft 420 kts 189°
2026-05-04 05:14 27.88319 119.56081 25760 ft 420 kts 189°
2026-05-04 05:14 27.85400 119.56064 25759 ft 421 kts 189°
2026-05-04 05:14 27.82470 119.56043 25761 ft 422 kts 189°
2026-05-04 05:15 27.79521 119.56024 25761 ft 422 kts 189°
2026-05-04 05:15 27.76594 119.56004 25760 ft 420 kts 189°
2026-05-04 05:15 27.73671 119.55983 25752 ft 421 kts 189°
2026-05-04 05:15 27.70741 119.55962 25755 ft 420 kts 189°
2026-05-04 05:16 27.67821 119.55940 25761 ft 421 kts 189°
2026-05-04 05:16 27.64896 119.55919 25760 ft 421 kts 189°
2026-05-04 05:16 27.61973 119.55896 25767 ft 421 kts 189°
2026-05-04 05:16 27.59030 119.55874 25762 ft 421 kts 189°
2026-05-04 05:17 27.56105 119.55852 25766 ft 421 kts 189°
2026-05-04 05:17 27.53179 119.55832 25763 ft 421 kts 189°
2026-05-04 05:17 27.50257 119.55810 25766 ft 420 kts 189°
2026-05-04 05:17 27.47340 119.55789 25771 ft 421 kts 189°
2026-05-04 05:18 27.44410 119.55767 25767 ft 422 kts 189°
2026-05-04 05:18 27.41481 119.55744 25764 ft 422 kts 189°
2026-05-04 05:18 27.38529 119.55723 25767 ft 422 kts 189°
2026-05-04 05:18 27.35598 119.55703 25767 ft 421 kts 189°
2026-05-04 05:19 27.32669 119.55682 25766 ft 422 kts 189°
2026-05-04 05:19 27.29738 119.55661 25762 ft 422 kts 189°
2026-05-04 05:19 27.26802 119.55640 25759 ft 423 kts 189°
2026-05-04 05:19 27.23870 119.55618 25768 ft 422 kts 189°
2026-05-04 05:20 27.20941 119.55598 25764 ft 421 kts 189°
2026-05-04 05:20 27.17993 119.55579 25759 ft 422 kts 189°
2026-05-04 05:20 27.15056 119.55556 25759 ft 422 kts 189°
2026-05-04 05:20 27.12121 119.55534 25764 ft 422 kts 189°
2026-05-04 05:21 27.09193 119.55513 25757 ft 421 kts 190°
2026-05-04 05:21 27.06266 119.55494 25760 ft 420 kts 190°
2026-05-04 05:21 27.03350 119.55471 25764 ft 420 kts 190°
2026-05-04 05:21 27.00423 119.55449 25760 ft 421 kts 190°
2026-05-04 05:22 26.97470 119.55427 25762 ft 423 kts 190°
2026-05-04 05:22 26.94537 119.55404 25758 ft 422 kts 189°
2026-05-04 05:22 26.91604 119.55382 25761 ft 422 kts 190°
2026-05-04 05:22 26.88660 119.55361 25764 ft 423 kts 190°
2026-05-04 05:23 26.85725 119.55342 25761 ft 422 kts 190°
2026-05-04 05:23 26.82793 119.55324 25761 ft 422 kts 190°
2026-05-04 05:23 26.79860 119.55304 25761 ft 422 kts 190°
2026-05-04 05:23 26.76901 119.55283 25757 ft 422 kts 189°
2026-05-04 05:24 26.73961 119.55262 25755 ft 423 kts 189°
2026-05-04 05:24 26.71020 119.55241 25755 ft 423 kts 190°
2026-05-04 05:24 26.68079 119.55219 25753 ft 423 kts 189°
2026-05-04 05:24 26.65136 119.55197 25756 ft 424 kts 189°
2026-05-04 05:25 26.62191 119.55176 25753 ft 424 kts 189°
2026-05-04 05:25 26.59245 119.55154 25751 ft 423 kts 189°
2026-05-04 05:25 26.56290 119.55133 25750 ft 422 kts 189°
2026-05-04 05:25 26.53356 119.55112 25751 ft 423 kts 189°
2026-05-04 05:26 26.50413 119.55089 25749 ft 424 kts 189°
2026-05-04 05:26 26.47464 119.55067 25744 ft 424 kts 189°
2026-05-04 05:26 26.44523 119.55044 25745 ft 424 kts 189°
2026-05-04 05:26 26.41577 119.55021 25746 ft 423 kts 189°
2026-05-04 05:27 26.38633 119.54997 25745 ft 424 kts 189°
2026-05-04 05:28 26.18277 119.53582 25736 ft 409 kts 202°
2026-05-04 05:29 26.15530 119.52695 25739 ft 408 kts 204°
2026-05-04 05:29 26.12826 119.51775 25736 ft 407 kts 204°
2026-05-04 05:29 26.10119 119.50849 25736 ft 408 kts 205°
2026-05-04 05:29 26.07410 119.49922 25733 ft 408 kts 205°
2026-05-04 05:31 25.88440 119.43453 25738 ft 408 kts 205°
2026-05-04 05:31 25.85718 119.42532 25734 ft 409 kts 205°
2026-05-04 05:32 25.82998 119.41610 25731 ft 409 kts 204°
2026-05-04 05:32 25.80279 119.40688 25731 ft 409 kts 205°
2026-05-04 05:32 25.77565 119.39722 25729 ft 405 kts 208°
2026-05-04 05:33 25.72749 119.36731 25736 ft 393 kts 223°
2026-05-04 05:33 25.70733 119.34730 25739 ft 388 kts 230°
2026-05-04 05:33 25.68870 119.32576 25735 ft 388 kts 230°
2026-05-04 05:33 25.67023 119.30402 25734 ft 389 kts 231°
2026-05-04 05:34 25.65174 119.28226 25733 ft 389 kts 230°
2026-05-04 05:34 25.63314 119.26034 25733 ft 389 kts 231°
2026-05-04 05:34 25.61469 119.23863 25729 ft 388 kts 231°
2026-05-04 05:34 25.59624 119.21696 25728 ft 388 kts 230°
2026-05-04 05:35 25.57776 119.19527 25729 ft 388 kts 230°
2026-05-04 05:35 25.55928 119.17359 25732 ft 388 kts 231°
2026-05-04 05:35 25.54082 119.15191 25730 ft 388 kts 231°
2026-05-04 05:35 25.52230 119.13022 25730 ft 389 kts 231°
2026-05-04 05:36 25.50361 119.10832 25730 ft 390 kts 231°
2026-05-04 05:36 25.48505 119.08656 25732 ft 390 kts 231°
2026-05-04 05:36 25.46653 119.06487 25735 ft 389 kts 230°
2026-05-04 05:36 25.44798 119.04314 25733 ft 389 kts 230°
2026-05-04 05:37 25.42943 119.02144 25733 ft 389 kts 231°
2026-05-04 05:37 25.41083 118.99968 25730 ft 389 kts 231°
2026-05-04 05:37 25.39225 118.97793 25731 ft 389 kts 231°
2026-05-04 05:38 25.35495 118.93438 25730 ft 390 kts 230°
2026-05-04 05:38 25.33639 118.91270 25727 ft 390 kts 231°
2026-05-04 05:38 25.31808 118.89070 25729 ft 390 kts 232°
2026-05-04 05:38 25.29987 118.86865 25727 ft 390 kts 232°
2026-05-04 05:39 25.28165 118.84656 25726 ft 389 kts 231°
2026-05-04 05:39 25.24509 118.80227 25594 ft 390 kts 231°
2026-05-04 05:39 25.22698 118.78033 25342 ft 385 kts 232°
2026-05-04 05:40 25.19207 118.73819 24822 ft 361 kts 232°
2026-05-04 05:40 25.17545 118.71808 24563 ft 350 kts 232°
2026-05-04 05:40 25.15934 118.69862 24186 ft 337 kts 232°
2026-05-04 05:41 25.14391 118.67994 23828 ft 326 kts 232°
2026-05-04 05:41 25.12879 118.66169 23468 ft 320 kts 232°
2026-05-04 05:41 25.11403 118.64386 23110 ft 312 kts 232°
2026-05-04 05:41 25.09961 118.62649 22750 ft 304 kts 232°
2026-05-04 05:42 25.08543 118.60963 22400 ft 299 kts 232°
2026-05-04 05:42 25.07119 118.59329 22051 ft 294 kts 231°
2026-05-04 05:42 25.05716 118.57723 21703 ft 289 kts 231°
2026-05-04 05:42 25.04335 118.56139 21289 ft 287 kts 231°
2026-05-04 05:43 25.02949 118.54550 20829 ft 287 kts 231°
2026-05-04 05:43 25.01579 118.52978 20334 ft 282 kts 231°
2026-05-04 05:43 25.00247 118.51450 19882 ft 274 kts 231°
2026-05-04 05:45 24.91520 118.41425 15761 ft 254 kts 231°
2026-05-04 05:45 24.90300 118.40045 15162 ft 251 kts 231°
2026-05-04 05:47 24.82215 118.30853 13004 ft 237 kts 231°
2026-05-04 05:47 24.81080 118.29552 12699 ft 235 kts 231°
2026-05-04 05:47 24.79951 118.28260 12381 ft 235 kts 231°
2026-05-04 05:48 24.78823 118.26969 12068 ft 234 kts 230°
2026-05-04 05:48 24.77690 118.25674 11752 ft 234 kts 230°
2026-05-04 05:48 24.76567 118.24394 11439 ft 233 kts 231°
2026-05-04 05:48 24.75450 118.23119 11129 ft 232 kts 230°
2026-05-04 05:49 24.74335 118.21847 10819 ft 231 kts 230°
2026-05-04 05:49 24.73223 118.20578 10510 ft 231 kts 230°
2026-05-04 05:49 24.72111 118.19310 10203 ft 231 kts 230°
2026-05-04 05:49 24.71000 118.18044 9883 ft 230 kts 230°
2026-05-04 05:51 24.63219 118.09170 7680 ft 233 kts 227°
2026-05-04 05:51 24.62090 118.07884 7363 ft 233 kts 227°
2026-05-04 05:52 24.60969 118.06613 7052 ft 232 kts 226°
2026-05-04 05:52 24.59855 118.05348 6731 ft 231 kts 226°
2026-05-04 05:52 24.58735 118.04074 6422 ft 233 kts 225°
2026-05-04 05:52 24.57610 118.02796 6119 ft 234 kts 225°
2026-05-04 05:53 24.56485 118.01521 6019 ft 233 kts 226°
2026-05-04 05:54 24.48784 117.92170 4999 ft 244 kts 228°
2026-05-04 05:55 24.47647 117.90789 4551 ft 245 kts 227°
2026-05-04 05:55 24.46321 117.89628 4062 ft 245 kts 199°
2026-05-04 05:55 24.44691 117.89541 3711 ft 233 kts 158°
2026-05-04 05:55 24.43427 117.90473 3434 ft 210 kts 131°
2026-05-04 05:56 24.42463 117.91598 3174 ft 196 kts 129°
2026-05-04 05:56 24.41535 117.92628 3117 ft 188 kts 131°
2026-05-04 05:56 24.40792 117.93755 3150 ft 179 kts 103°
2026-05-04 05:56 24.40858 117.95053 3129 ft 172 kts 63°
2026-05-04 05:57 24.41669 117.95987 3133 ft 170 kts 38°
2026-05-04 05:57 24.42607 117.96772 3111 ft 170 kts 41°
2026-05-04 05:57 24.43468 117.97657 3093 ft 171 kts 46°
2026-05-04 05:57 24.44270 117.98618 2930 ft 171 kts 49°
2026-05-04 05:58 24.45034 117.99615 2721 ft 171 kts 50°
2026-05-04 05:58 24.45766 118.00617 2504 ft 163 kts 51°
2026-05-04 05:58 24.46426 118.01544 2303 ft 148 kts 51°
2026-05-04 05:58 24.47056 118.02433 2107 ft 147 kts 51°
2026-05-04 05:59 24.47678 118.03311 1921 ft 145 kts 51°
2026-05-04 05:59 24.48293 118.04177 1733 ft 143 kts 50°
2026-05-04 05:59 24.48902 118.05035 1542 ft 144 kts 50°
2026-05-04 05:59 24.49518 118.05900 1357 ft 145 kts 50°
2026-05-04 06:00 24.50143 118.06777 1169 ft 147 kts 50°
2026-05-04 06:00 24.50774 118.07663 977 ft 148 kts 51°
2026-05-04 06:00 24.51390 118.08527 773 ft 140 kts 51°
2026-05-04 06:00 24.51984 118.09358 598 ft 139 kts 51°
2026-05-04 06:01 24.52559 118.10163 408 ft 130 kts 51°
2026-05-04 06:01 24.53108 118.10932 243 ft 128 kts 51°
2026-05-04 06:03 24.54549 118.13189 85 ft 21 kts 78°
2026-05-04 06:03 24.54609 118.13329 85 ft 20 kts 51°
2026-05-04 06:05 24.55030 118.13997 85 ft 12 kts 133°
2026-05-04 06:05 24.54951 118.14023 85 ft 7 kts 328°
2026-05-04 06:05 24.54957 118.14060 85 ft 9 kts 140°
2026-05-04 06:06 24.54918 118.14097 85 ft 8 kts 140°
2026-05-04 06:06 24.54876 118.14084 84 ft 7 kts 223°
2026-05-04 06:06 24.54862 118.14068 84 ft 0 kts 227°
2026-05-04 06:07 24.54863 118.14069 83 ft 0 kts 227°
2026-05-04 06:08 24.54853 118.14058 83 ft 4 kts 220°
2026-05-04 06:08 24.54839 118.14048 83 ft 1 kts 213°
2026-05-04 06:08 24.54840 118.14049 83 ft 1 kts 213°
2026-05-04 06:08 24.54846 118.14053 83 ft 1 kts 214°
2026-05-04 06:09 24.54854 118.14059 83 ft 1 kts 218°
2026-05-04 06:09 24.54861 118.14065 83 ft 2 kts 223°
2026-05-04 06:11 24.54866 118.14071 83 ft 0 kts 223°